Wind_Speed
94 93 93 94 95 95 95 96 96 97 97 98 98 99 99 100 101 101 101 101 102 102 102 101 99 98 98 98 99 99 100 100 100 101 101 100 100 99 97 94 92 90
94 94 94 95 95 95 95 96 97 97 97 98 99 99 100 101 102 102 102 103 103 102 102 100 99 99 99 99 100 101 101 101 102 102 102 102 101 99 97 94 92 90
94 94 94 95 95 95 96 97 97 98 98 99 100 100 101 102 103 103 103 103 103 102 101 100 100 100 100 101 102 102 102 103 103 104 104 102 101 99 97 94 92 90
94 94 94 95 96 97 98 98 98 99 100 101 101 102 103 104 104 104 104 103 103 102 101 101 101 101 102 102 103 103 104 105 105 105 104 102 101 98 96 94 92 91
95 95 96 97 98 99 99 100 101 102 102 103 103 103 104 105 105 105 104 104 103 102 101 102 102 102 103 104 104 105 105 106 106 105 104 102 100 98 96 95 93 92
97 97 98 99 99 100 101 102 103 104 105 105 105 105 106 106 106 106 105 104 103 102 103 103 103 104 105 105 106 107 107 107 106 104 102 100 99 97 96 95 93 93
99 100 101 101 102 103 104 105 106 106 107 107 107 107 107 107 106 106 105 104 103 104 104 105 105 106 106 107 107 108 108 107 105 102 101 99 98 97 96 95 94 94
102 103 104 104 105 105 106 106 107 107 108 108 108 108 108 107 106 106 105 105 105 105 106 107 107 107 108 109 109 109 107 105 102 101 99 98 98 97 97 96 95 95
105 106 106 107 107 107 107 108 108 108 108 108 108 108 107 107 106 106 106 106 107 107 108 109 109 109 110 110 109 107 105 102 101 100 99 98 98 98 97 97 96 96
106 107 108 108 108 108 108 108 109 108 108 108 108 108 108 108 108 108 108 109 109 109 110 110 111 112 112 110 107 105 103 101 100 99 99 99 99 98 98 98 97 97
106 107 108 108 108 108 108 108 108 108 108 108 108 108 109 110 110 110 111 111 111 112 112 113 113 113 111 108 105 103 102 101 100 100 100 99 99 99 99 99 98 99
106 107 107 108 108 108 108 108 108 108 109 109 110 110 111 112 113 113 114 114 114 114 114 115 114 112 109 106 103 102 102 101 101 101 101 100 100 100 100 100 100 100
106 107 107 107 108 108 108 108 109 110 110 111 112 113 113 114 115 116 116 116 116 116 116 114 112 109 106 105 103 103 102 102 102 102 102 101 101 101 101 101 101 102
107 107 108 108 109 109 110 111 112 112 113 114 114 115 116 117 117 118 118 118 117 116 114 112 109 107 106 105 105 105 104 103 103 102 102 102 102 102 102 102 103 103
110 110 111 111 112 113 113 114 115 115 115 116 116 117 118 118 119 118 118 116 115 113 111 110 108 107 107 107 107 106 105 104 104 103 103 103 103 103 103 104 104 105
113 114 115 115 115 116 116 117 117 117 117 117 117 117 117 117 117 116 115 114 113 112 111 110 110 109 109 109 108 107 106 105 105 105 105 104 104 104 104 105 106 106
116 117 117 117 117 118 118 118 117 117 116 116 116 116 116 116 115 115 114 113 113 112 112 111 111 111 111 110 109 108 107 107 106 106 106 105 105 105 106 107 107 108
117 117 117 117 118 118 118 117 117 116 116 116 115 115 115 115 115 114 114 114 114 114 113 113 113 113 112 111 110 109 108 108 107 107 106 106 106 106 107 108 109 109
117 117 117 117 118 118 118 117 116 116 116 116 116 116 115 115 115 115 115 115 115 115 115 114 114 113 112 111 110 109 109 108 108 107 106 106 106 107 108 108 109 110
118 118 118 118 118 118 118 118 117 117 117 117 117 116 116 115 115 115 115 115 115 115 114 113 112 111 110 109 108 108 107 106 106 106 105 105 106 107 107 108 109 109
120 120 120 120 120 119 119 118 118 117 117 117 116 116 115 115 114 114 114 114 113 112 111 109 108 108 107 106 106 105 105 104 104 104 104 104 105 106 106 107 108 108
120 120 120 119 119 118 118 117 117 116 115 115 114 114 113 113 112 112 112 111 110 109 107 106 106 106 105 105 104 104 103 102 101 101 102 103 103 104 104 105 106 106
119 118 118 117 116 116 115 115 115 114 113 113 112 111 111 110 110 110 109 108 107 106 105 104 104 104 104 103 103 102 102 101 99 99 99 100 101 102 102 102 103 104
116 116 116 115 114 113 113 112 112 111 111 110 110 109 108 108 108 107 106 105 105 104 104 103 103 103 103 103 102 102 101 100 99 98 97 98 99 99 100 100 101 101
114 114 114 113 112 111 110 109 109 108 108 107 107 106 105 105 105 104 103 103 103 103 103 102 102 102 102 102 102 102 101 99 98 97 96 97 97 98 98 99 99 100
111 111 111 112 111 110 109 108 107 106 106 105 105 104 103 103 103 102 102 102 102 102 102 102 101 102 102 102 102 101 100 99 97 96 96 97 97 97 97 98 99 100
Wind_Direction
278 279 280 280 280 280 281 282 282 283 283 283 284 285 285 286 286 287 288 289 290 290 290 290 290 290 291 291 292 292 293 294 295 295 296 295 295 294 293 292 290 289
279 280 280 280 280 281 281 282 282 282 283 283 284 285 285 286 287 288 288 289 289 289 289 289 289 290 290 291 291 292 293 294 295 295 295 295 294 293 292 291 290 289
279 280 280 281 281 281 281 281 282 282 283 283 284 285 285 286 286 287 287 288 288 288 288 288 289 289 290 291 292 293 293 294 295 295 295 294 293 293 291 290 289 289
279 279 280 280 280 280 281 281 282 282 283 283 284 284 285 285 285 286 286 287 287 287 287 288 288 289 290 291 292 293 293 294 295 294 294 293 292 291 290 290 289 289
279 279 279 279 280 280 281 282 282 282 283 283 283 284 284 284 285 285 285 286 286 286 287 287 288 289 290 291 292 293 293 294 294 293 293 292 291 290 289 289 289 289
278 279 279 279 280 281 282 282 282 283 283 283 283 283 284 284 284 285 285 285 285 286 287 287 288 289 290 291 292 293 293 293 293 292 291 290 290 289 288 288 288 289
278 279 279 280 280 281 281 281 282 282 282 282 283 283 284 284 284 284 284 284 285 286 287 288 289 289 290 291 292 293 293 292 291 290 290 289 288 288 288 288 288 288
279 279 279 280 280 280 280 280 281 281 282 282 283 283 283 283 283 284 284 285 285 286 287 288 289 290 291 291 292 292 291 290 289 289 288 288 287 287 288 288 288 288
279 279 279 279 280 280 280 280 281 281 282 282 283 283 283 283 283 284 284 285 286 287 288 288 289 290 291 291 291 290 289 289 288 288 287 287 287 287 287 287 288 288
279 279 279 279 279 280 280 281 281 282 282 282 282 282 283 283 283 284 285 286 287 287 288 289 290 290 290 290 290 289 288 288 287 287 287 287 287 287 287 287 287 288
278 278 279 279 279 280 280 281 281 281 281 281 282 282 283 284 284 285 286 286 287 288 288 289 289 289 289 289 288 288 287 287 287 286 286 286 286 286 286 287 287 287
278 278 278 279 279 280 280 280 280 281 281 282 282 283 284 284 285 285 286 287 287 288 288 288 288 288 288 288 287 287 286 286 286 286 286 286 286 286 286 286 286 286
277 278 278 279 279 279 280 280 280 281 281 282 283 284 284 285 285 285 286 286 287 287 287 287 287 287 287 286 286 286 286 286 286 285 285 285 285 285 285 286 286 286
278 278 278 279 279 279 280 280 281 281 282 282 283 283 284 284 285 285 285 286 286 286 286 286 286 286 286 286 285 285 285 285 285 285 285 285 285 285 285 285 285 286
278 278 279 279 279 280 280 280 281 281 282 282 283 283 284 284 284 284 285 285 285 285 285 285 285 285 285 285 285 285 285 285 285 284 284 284 284 284 284 285 285 285
279 279 279 280 280 280 280 281 281 282 282 283 283 283 283 283 283 284 284 284 284 284 284 285 285 285 285 285 285 285 285 284 284 284 283 284 284 284 284 284 285 285
279 280 280 280 281 281 281 281 282 282 282 282 282 282 282 283 283 283 283 283 284 284 284 285 285 285 285 284 284 284 284 283 283 283 283 283 283 284 284 284 284 285
280 280 281 281 281 281 281 281 282 282 282 282 282 282 282 282 283 283 283 283 283 284 284 284 284 284 284 284 284 283 283 283 283 282 282 283 283 283 283 284 284 284
280 280 281 281 281 281 281 281 282 282 282 282 282 282 282 282 282 282 283 283 283 283 283 283 283 283 283 283 283 283 282 282 282 282 282 282 282 282 282 283 283 284
281 281 282 282 282 282 282 282 282 282 282 282 282 282 282 282 282 282 282 282 282 282 283 283 283 283 283 283 282 282 282 281 282 282 282 282 281 281 282 282 282 283
282 282 282 282 282 282 282 282 282 282 282 282 282 282 282 282 282 282 282 282 282 282 283 283 283 283 282 282 282 281 281 281 281 281 281 281 281 281 281 281 281 282
282 282 281 281 281 281 282 282 281 282 282 282 282 282 282 282 282 282 282 282 282 283 283 283 282 282 282 282 281 281 281 281 281 281 281 281 281 280 281 281 281 281
282 282 281 281 281 281 281 281 281 281 281 281 281 282 282 282 282 282 282 282 282 282 282 282 282 282 282 282 281 281 281 281 281 281 281 281 281 280 281 280 281 281
282 282 282 281 281 281 281 281 281 281 281 281 281 281 281 281 281 281 282 282 281 281 281 281 281 281 281 281 281 281 281 281 281 281 280 280 280 280 280 280 280 281
283 283 282 282 281 281 281 280 280 280 280 280 280 280 280 280 280 281 281 280 280 280 280 280 280 280 280 280 280 280 280 280 280 280 280 280 280 280 280 280 281 281
281 281 282 282 281 281 281 281 280 280 280 280 280 280 280 280 280 280 280 280 280 280 279 279 279 279 279 279 279 279 280 280 280 280 280 279 279 279 280 280 280 280
Height
10406 10405 10403 10401 10398 10397 10395 10391 10388 10386 10383 10380 10376 10373 10369 10365 10362 10358 10356 10353 10349 10345 10341 10337 10334 10331 10327 10324 10320 10317 10313 10309 10305 10300 10296 10291 10286 10282 10278 10275 10271 10268
10393 10392 10389 10387 10385 10383 10381 10378 10374 10372 10369 10366 10363 10359 10356 10352 10348 10345 10343 10340 10335 10332 10328 10324 10321 10318 10315 10311 10308 10304 10300 10296 10292 10287 10283 10279 10274 10270 10266 10262 10259 10255
10380 10378 10376 10374 10371 10369 10367 10365 10362 10358 10356 10353 10350 10347 10343 10339 10335 10333 10330 10326 10323 10319 10315 10312 10309 10305 10302 10298 10295 10291 10287 10283 10279 10274 10269 10265 10261 10257 10253 10249 10246 10243
10368 10366 10364 10361 10358 10355 10354 10352 10349 10345 10343 10341 10338 10335 10331 10326 10322 10320 10317 10313 10310 10307 10303 10299 10296 10292 10289 10285 10282 10278 10274 10270 10265 10260 10256 10252 10248 10245 10241 10237 10234 10231
10356 10353 10351 10348 10345 10342 10340 10339 10335 10332 10330 10327 10324 10322 10318 10313 10309 10306 10303 10300 10297 10294 10290 10286 10283 10280 10276 10272 10268 10265 10261 10257 10252 10247 10243 10239 10235 10232 10228 10224 10221 10218
10342 10340 10338 10336 10333 10330 10327 10324 10321 10318 10315 10312 10310 10308 10304 10300 10296 10293 10289 10286 10284 10280 10277 10273 10270 10267 10263 10259 10255 10251 10247 10243 10238 10233 10230 10226 10222 10219 10215 10212 10209 10206
10329 10327 10324 10322 10320 10318 10315 10311 10307 10304 10301 10298 10296 10293 10289 10286 10282 10279 10275 10273 10270 10267 10263 10259 10257 10253 10250 10246 10242 10238 10233 10229 10225 10220 10217 10213 10209 10206 10202 10199 10196 10193
10315 10313 10310 10307 10306 10304 10301 10297 10293 10290 10287 10284 10281 10278 10274 10271 10267 10264 10261 10259 10257 10253 10249 10245 10242 10239 10236 10232 10228 10224 10219 10215 10211 10207 10203 10200 10196 10193 10190 10187 10184 10180
10300 10297 10294 10292 10291 10288 10285 10282 10279 10276 10273 10270 10266 10262 10259 10256 10252 10250 10247 10245 10242 10238 10235 10231 10228 10225 10221 10218 10214 10209 10205 10201 10198 10194 10190 10187 10184 10180 10177 10174 10171 10167
10285 10281 10278 10277 10274 10272 10270 10267 10264 10261 10258 10255 10251 10247 10244 10240 10238 10235 10232 10229 10226 10223 10220 10216 10213 10209 10206 10203 10199 10195 10191 10188 10184 10181 10177 10174 10171 10167 10164 10161 10158 10154
10269 10265 10263 10261 10259 10257 10255 10252 10249 10246 10242 10239 10236 10232 10229 10225 10222 10219 10216 10213 10210 10208 10205 10202 10197 10193 10190 10187 10184 10181 10177 10174 10171 10168 10164 10161 10158 10155 10151 10148 10145 10140
10253 10250 10249 10247 10245 10243 10240 10237 10234 10231 10227 10224 10221 10217 10214 10210 10206 10203 10200 10197 10194 10192 10190 10186 10181 10178 10175 10172 10169 10166 10163 10160 10157 10154 10151 10148 10145 10141 10138 10135 10131 10127
10238 10236 10235 10233 10230 10228 10226 10223 10219 10216 10213 10209 10206 10203 10199 10194 10190 10187 10184 10181 10179 10176 10173 10169 10166 10163 10160 10157 10155 10152 10149 10147 10144 10141 10137 10134 10131 10127 10124 10121 10117 10113
10224 10222 10220 10217 10215 10213 10211 10208 10204 10202 10199 10195 10192 10188 10184 10179 10175 10171 10168 10165 10163 10160 10157 10153 10151 10149 10146 10142 10140 10137 10135 10133 10130 10127 10124 10120 10117 10114 10110 10107 10102 10098
10209 10206 10204 10201 10199 10197 10194 10192 10189 10187 10184 10181 10177 10173 10168 10163 10159 10155 10152 10150 10147 10144 10141 10138 10135 10133 10130 10126 10124 10123 10120 10118 10115 10112 10109 10106 10103 10100 10096 10092 10088 10084
10192 10189 10187 10185 10183 10180 10177 10175 10173 10170 10168 10165 10161 10156 10151 10147 10143 10140 10137 10134 10130 10128 10125 10123 10120 10117 10113 10110 10109 10108 10105 10102 10100 10097 10094 10091 10089 10086 10082 10077 10073 10070
10175 10172 10170 10168 10165 10162 10159 10157 10155 10153 10151 10147 10143 10139 10134 10131 10127 10124 10121 10117 10114 10112 10110 10107 10104 10100 10096 10094 10093 10092 10089 10086 10084 10081 10079 10076 10073 10070 10066 10062 10058 10055
10157 10155 10153 10151 10147 10144 10141 10140 10138 10136 10133 10129 10126 10122 10118 10115 10112 10108 10105 10102 10099 10096 10093 10090 10087 10083 10080 10078 10077 10075 10072 10070 10067 10065 10063 10061 10059 10055 10051 10047 10043 10040
10140 10139 10137 10133 10129 10126 10124 10122 10120 10117 10114 10111 10108 10105 10101 10099 10096 10092 10089 10086 10082 10079 10076 10074 10070 10067 10064 10062 10060 10058 10055 10053 10051 10049 10048 10046 10043 10040 10036 10032 10029 10025
10122 10122 10119 10115 10111 10108 10105 10104 10101 10098 10095 10091 10089 10086 10084 10081 10078 10075 10072 10068 10064 10062 10060 10058 10054 10050 10047 10045 10043 10040 10038 10037 10035 10034 10033 10031 10027 10024 10021 10018 10014 10011
10105 10104 10100 10096 10092 10089 10087 10085 10081 10078 10075 10073 10070 10068 10065 10063 10060 10057 10053 10049 10046 10044 10043 10042 10038 10033 10030 10028 10026 10024 10022 10022 10021 10019 10016 10014 10012 10008 10005 10002 9999 9995
10087 10085 10080 10077 10074 10071 10068 10065 10062 10059 10057 10054 10052 10049 10047 10045 10041 10038 10034 10031 10029 10028 10026 10025 10020 10015 10013 10011 10010 10008 10006 10006 10007 10005 10000 9998 9996 9992 9990 9987 9983 9979
10067 10063 10059 10057 10055 10053 10049 10046 10043 10041 10038 10035 10033 10031 10029 10026 10022 10019 10016 10014 10013 10011 10009 10007 10003 9999 9997 9995 9993 9992 9990 9990 9992 9991 9987 9983 9979 9976 9974 9971 9967 9964
10045 10042 10039 10037 10036 10033 10030 10028 10025 10022 10020 10017 10015 10013 10011 10008 10005 10002 10000 9998 9996 9993 9991 9989 9986 9983 9981 9979 9977 9975 9975 9975 9976 9976 9974 9970 9965 9961 9959 9956 9953 9949
10026 10022 10019 10016 10015 10013 10012 10010 10008 10005 10002 9999 9997 9996 9994 9992 9988 9986 9984 9982 9979 9976 9975 9973 9970 9968 9965 9963 9961 9960 9960 9961 9961 9961 9960 9956 9951 9948 9945 9942 9938 9934
10010 10005 10001 9997 9994 9993 9992 9991 9990 9987 9984 9983 9981 9979 9977 9975 9972 9970 9968 9965 9962 9960 9958 9956 9954 9952 9949 9946 9945 9944 9944 9946 9947 9947 9944 9940 9937 9936 9933 9929 9924 9919